Date,TemperatureHighF,TemperatureAvgF,TemperatureLowF,DewpointHighF,DewpointAvgF,DewpointLowF,HumidityHigh,HumidityAvg,HumidityLow,PressureMaxIn,PressureMinIn,WindSpeedMaxMPH,WindSpeedAvgMPH,GustSpeedMaxMPH,PrecipitationSumIn
2013-1-1,24.0,21.6,20.0,-12.0,-97.5,-99.9,22,1,22,0.00,40.00,2,0,6,0.00
2013-1-2,22.0,19.8,19.0,-99.9,-99.9,-99.9,0,0,100,0.00,40.00,2,0,6,0.00
2013-1-3,32.0,19.5,18.0,32.0,-96.6,-99.9,100,2,100,0.00,40.00,1,0,3,0.00
2013-1-4,26.0,22.2,19.0,-99.9,-99.9,-99.9,0,0,100,0.00,40.00,2,0,6,0.00
2013-1-5,25.0,22.4,20.0,-99.9,-99.9,-99.9,0,0,100,0.00,40.00,1,0,2,0.00
2013-1-6,30.0,23.6,18.0,-99.9,-99.9,-99.9,0,0,100,0.00,40.00,3,1,7,0.00
2013-1-7,32.0,28.0,23.0,-99.9,-99.9,-99.9,0,0,100,0.00,40.00,3,1,14,0.00
2013-1-8,32.0,31.2,31.0,-99.9,-99.9,-99.9,0,0,100,0.00,40.00,3,0,14,0.00
2013-1-9,32.0,30.6,29.0,-99.9,-99.9,-99.9,0,0,100,0.00,40.00,2,0,9,0.00
2013-1-10,33.0,26.0,21.0,-99.9,-99.9,-99.9,0,0,100,0.00,40.00,3,1,13,0.00
2013-1-11,22.0,17.0,10.0,-99.9,-99.9,-99.9,0,0,100,0.00,40.00,0,0,2,0.00
2013-1-12,20.0,11.2,7.0,-31.0,-98.2,-99.9,8,0,8,0.00,40.00,1,0,2,0.00
2013-1-13,23.0,11.7,2.0,-99.9,-99.9,-99.9,0,0,100,0.00,40.00,1,0,5,0.00
2013-1-14,36.0,22.5,18.0,31.0,-95.5,-99.9,92,3,92,0.00,40.00,12,2,25,0.00
2013-1-15,28.0,17.3,13.0,-99.9,-99.9,-99.9,0,0,100,0.00,40.00,5,1,9,0.00
2013-1-16,22.0,19.3,15.0,-99.9,-99.9,-99.9,0,0,100,0.00,40.00,2,1,7,0.00
2013-1-17,25.0,20.3,18.0,-99.9,-99.9,-99.9,0,0,100,0.00,40.00,3,1,7,0.00
2013-1-18,23.0,17.8,14.0,-99.9,-99.9,-99.9,0,0,100,0.00,40.00,2,1,5,0.00
2013-1-19,22.0,15.0,9.0,-99.9,-99.9,-99.9,0,0,100,0.00,40.00,1,0,5,0.00
2013-1-20,27.0,16.5,8.0,-99.9,-99.9,-99.9,0,0,100,0.00,40.00,2,0,7,0.00
2013-1-21,21.0,16.7,13.0,-99.9,-99.9,-99.9,0,0,100,0.00,40.00,3,1,8,0.00
2013-1-22,22.0,17.3,12.0,-99.9,-99.9,-99.9,0,0,100,0.00,40.00,1,0,3,0.00
2013-1-23,26.0,21.9,17.0,-99.9,-99.9,-99.9,0,0,100,0.00,40.00,1,0,2,0.00
2013-1-24,24.0,19.9,14.0,-99.9,-99.9,-99.9,0,0,100,0.00,40.00,3,1,7,0.00
2013-1-25,32.0,25.4,21.0,-99.9,-99.9,-99.9,0,0,100,0.00,40.00,2,0,6,0.00
2013-1-26,32.0,27.7,26.0,-99.9,-99.9,-99.9,0,0,100,0.00,40.00,2,1,6,0.00
2013-1-27,33.0,25.6,17.0,-99.9,-99.9,-99.9,0,0,100,0.00,40.00,3,1,8,0.00
2013-1-28,35.0,27.7,22.0,-99.9,-99.9,-99.9,0,0,100,0.00,40.00,6,1,17,0.00
2013-1-29,42.0,37.2,34.0,37.0,-18.2,-99.9,96,51,67,0.00,40.00,8,6,22,0.00
2013-1-31,46.0,38.4,33.0,38.0,-35.5,-99.9,100,35,60,0.00,40.00,3,2,12,0.00
2013-2-1,44.0,33.2,28.0,38.0,-69.8,-99.9,100,19,75,0.00,40.00,1,0,12,0.00
2013-2-2,39.0,29.1,23.0,38.0,-80.7,-99.9,100,13,85,0.00,40.00,1,0,6,0.00
2013-2-3,45.0,31.2,23.0,32.0,-39.7,-99.9,100,36,59,0.00,40.00,6,1,17,0.00
2013-2-4,43.0,33.8,29.0,39.0,-69.5,-99.9,100,21,70,0.00,40.00,1,0,3,0.00
2013-2-5,41.0,33.8,30.0,39.0,-88.7,-99.9,100,8,100,0.00,40.00,2,0,6,0.00
2013-2-6,40.0,33.7,31.0,-99.9,-99.9,-99.9,0,0,100,0.00,40.00,3,0,7,0.00
2013-2-7,41.0,32.5,26.0,40.0,-47.9,-99.9,100,33,48,0.00,40.00,6,1,13,0.00
2013-2-8,40.0,28.4,20.0,28.0,-34.7,-99.9,100,38,50,0.00,40.00,5,1,14,0.00
2013-2-9,41.0,31.0,25.0,32.0,23.1,-99.9,100,81,57,0.00,40.00,7,2,17,0.00
2013-2-10,43.0,28.8,22.0,31.0,-26.9,-99.9,100,48,55,0.00,40.00,2,0,6,0.00
2013-2-11,45.0,33.3,23.0,42.0,-26.5,-99.9,100,40,55,0.00,40.00,6,2,15,0.00
2013-2-12,46.0,41.2,38.0,34.0,29.8,24.0,72,63,49,0.00,40.00,9,5,23,0.00
2013-2-13,44.0,41.0,35.0,34.0,29.1,26.0,75,62,48,0.00,40.00,12,6,24,0.00
2013-2-14,47.0,37.5,31.0,32.0,29.2,27.0,92,72,51,0.00,40.00,6,2,17,0.00
2013-2-15,47.0,32.6,26.0,38.0,-24.7,-99.9,100,50,60,0.00,40.00,2,0,7,0.00
2013-2-16,45.0,31.7,26.0,33.0,-72.4,-99.9,100,16,48,0.00,40.00,6,1,16,0.00
2013-2-17,43.0,32.9,27.0,32.0,-34.5,-99.9,88,36,42,0.00,40.00,5,1,9,0.00
2013-2-18,38.0,29.4,24.0,30.0,3.0,-99.9,100,68,61,0.00,40.00,1,0,5,0.00
2013-2-19,42.0,31.0,26.0,28.0,14.0,-99.9,100,74,44,0.00,40.00,3,0,7,0.00
2013-2-20,40.0,28.5,20.0,33.0,9.3,-99.9,100,73,48,0.00,40.00,6,1,12,0.00
2013-2-21,40.0,30.6,24.0,34.0,-12.9,-99.9,100,60,57,0.00,40.00,3,1,12,0.00
2013-2-22,33.0,30.1,28.0,-99.9,-99.9,-99.9,0,0,100,0.00,40.00,2,0,9,0.00
2013-2-23,37.0,31.4,28.0,37.0,-44.2,-99.9,100,38,75,0.00,40.00,7,3,18,0.00
2013-2-24,42.0,34.3,30.0,29.0,27.8,26.0,88,77,57,0.00,40.00,5,1,15,0.00
2013-2-25,39.0,33.2,29.0,35.0,0.6,-99.9,100,63,61,0.00,40.00,7,3,20,0.00
2013-2-26,42.0,35.4,31.0,29.0,23.7,20.0,81,63,41,0.00,40.00,6,2,15,0.00
2013-2-27,45.0,35.6,29.0,33.0,25.6,-99.9,100,76,44,0.00,40.00,2,1,9,0.00
2013-2-28,33.0,32.3,32.0,32.0,-54.1,-99.9,100,34,88,0.00,40.00,2,0,5,0.00
2013-3-1,54.0,38.6,32.0,41.0,-42.9,-99.9,96,32,54,0.00,40.00,7,2,21,0.00
2013-3-2,54.0,38.4,30.0,47.0,-8.5,-99.9,100,54,46,0.00,40.00,6,2,15,0.00
2013-3-3,42.0,34.1,28.0,30.0,23.1,17.0,100,66,38,0.00,40.00,6,3,18,0.00
2013-3-4,41.0,30.4,21.0,24.0,21.7,19.0,95,72,40,0.00,40.00,2,1,6,0.00
2013-3-5,40.0,30.6,26.0,30.0,24.4,20.0,96,78,44,0.00,40.00,2,0,6,0.00
2013-3-6,36.0,32.4,30.0,30.0,-70.7,-99.9,100,22,96,0.00,40.00,2,1,5,0.00
2013-3-7,44.0,34.2,29.0,36.0,-53.7,-99.9,100,30,67,0.00,40.00,2,0,5,0.00
2013-3-8,49.0,33.7,26.0,37.0,-2.9,-99.9,100,60,43,0.00,40.00,2,0,6,0.00
2013-3-9,53.0,35.7,23.0,33.0,21.6,-99.9,100,69,21,0.00,40.00,7,2,16,0.00
2013-3-10,49.0,40.6,31.0,31.0,29.3,26.0,88,65,47,0.00,40.00,7,3,18,0.00
2013-3-11,49.0,37.8,26.0,33.0,26.8,18.0,100,69,28,0.00,40.00,3,1,9,0.00
2013-3-12,50.0,39.9,31.0,42.0,12.0,-99.9,100,68,63,0.00,40.00,6,1,16,0.00
2013-3-13,56.0,46.8,38.0,42.0,40.5,38.0,100,80,57,0.00,40.00,5,2,12,0.00
2013-3-14,57.0,46.4,36.0,38.0,-9.0,-99.9,70,37,35,0.00,40.00,7,3,18,0.00
2013-3-15,54.0,44.6,38.0,46.0,33.6,-99.9,100,73,48,0.00,40.00,5,2,15,0.00
2013-3-16,47.0,37.0,30.0,44.0,13.4,-99.9,100,74,60,0.00,40.00,5,2,17,0.00
2013-3-17,40.0,32.3,28.0,32.0,20.3,-99.9,100,78,50,0.00,40.00,7,3,17,0.00
2013-3-18,40.0,32.5,27.0,32.0,26.6,24.0,100,80,54,0.00,40.00,7,2,22,0.00
2013-3-19,42.0,32.5,24.0,30.0,24.3,20.0,100,75,41,0.00,40.00,3,1,10,0.00
2013-3-20,39.0,32.7,30.0,39.0,32.7,29.0,100,100,100,0.00,40.00,6,0,14,0.00
2013-3-21,41.0,32.3,28.0,30.0,25.4,16.0,96,77,37,0.00,40.00,9,3,18,0.00
2013-3-22,40.0,30.4,24.0,26.0,21.7,14.0,92,72,36,0.00,40.00,7,2,15,0.00
2013-3-23,42.0,30.7,23.0,24.0,19.8,14.0,84,66,31,0.00,40.00,3,1,8,0.00
2013-3-24,27.0,23.4,21.0,23.0,21.1,20.0,95,90,84,0.00,40.00,1,0,2,0.00
2013-3-25,50.0,38.4,25.0,26.0,21.6,13.0,91,55,25,0.00,40.00,3,1,10,0.00
2013-3-26,56.0,34.5,24.0,29.0,24.6,23.0,95,73,29,0.00,40.00,2,1,6,0.00
2013-3-27,55.0,46.0,31.0,37.0,33.0,29.0,92,63,41,0.00,40.00,2,1,10,0.00
2013-3-28,56.0,41.5,28.0,40.0,33.6,28.0,100,76,39,0.00,40.00,3,1,12,0.00
2013-3-29,39.0,32.6,28.0,35.0,31.1,28.0,100,94,85,0.00,40.00,1,1,3,0.00
2013-3-30,63.0,48.3,28.0,39.0,29.6,-99.9,100,64,32,0.00,40.00,2,1,5,0.00
2013-3-31,67.0,42.4,29.0,40.0,32.8,29.0,100,77,26,0.00,40.00,3,1,7,0.00
2013-4-1,30.0,30.0,30.0,30.0,30.0,30.0,100,100,100,0.00,40.00,0,0,1,0.00
2013-4-2,42.0,42.0,42.0,36.0,36.0,36.0,79,79,79,0.00,40.00,2,2,5,0.00
2013-4-3,65.0,53.8,40.0,39.0,34.7,29.0,85,51,26,0.00,40.00,6,2,12,0.00
2013-4-4,46.0,43.4,41.0,45.0,40.1,37.0,100,88,76,0.00,40.00,1,1,5,0.00
2013-4-5,49.0,43.2,40.0,46.0,-52.2,-99.9,100,31,82,0.00,40.00,3,1,7,0.00
2013-4-6,41.0,39.7,38.0,-99.9,-99.9,-99.9,0,0,100,0.00,40.00,1,0,2,0.00
2013-4-8,54.0,44.8,34.0,34.0,32.2,29.0,96,63,40,0.00,40.00,7,3,15,0.00
2013-4-9,56.0,40.7,28.0,37.0,32.5,28.0,100,76,36,0.00,40.00,3,1,9,0.00
2013-4-10,51.0,45.0,40.0,46.0,39.0,33.0,100,81,51,0.00,40.00,9,4,24,0.00
2013-4-11,50.0,41.9,33.0,35.0,30.3,23.0,92,65,34,0.00,40.00,7,3,22,0.00
2013-4-12,50.0,35.8,29.0,36.0,30.7,24.0,100,84,35,0.00,40.00,3,1,10,0.00
2013-4-13,38.0,33.1,30.0,34.0,30.9,29.0,100,92,69,0.00,40.00,9,3,17,0.00
2013-4-15,39.0,35.7,33.0,37.0,33.8,31.0,100,93,82,0.00,40.00,1,1,7,0.00
2013-4-16,47.0,39.9,32.0,34.0,26.9,19.0,100,64,33,0.00,40.00,3,1,6,0.00
2013-4-17,52.0,37.7,26.0,33.0,27.3,24.0,100,71,35,0.00,40.00,7,2,17,0.00
2013-4-18,55.0,45.2,39.0,36.0,33.6,31.0,82,64,48,0.00,40.00,8,3,18,0.00
2013-4-19,55.0,48.7,37.0,38.0,37.6,37.0,100,67,50,0.00,40.00,7,4,17,0.00
2013-4-20,55.0,46.5,40.0,37.0,35.1,31.0,85,65,43,0.00,40.00,7,5,22,0.00
2013-4-21,52.0,44.2,36.0,33.0,30.5,28.0,85,60,40,0.00,40.00,10,4,22,0.00
2013-4-22,57.0,38.6,26.0,32.0,24.0,10.0,100,67,15,0.00,40.00,3,2,6,0.00
2013-4-23,58.0,42.6,28.0,32.0,26.8,20.0,92,60,22,0.00,40.00,3,1,9,0.00
2013-4-24,60.0,38.1,28.0,34.0,29.1,26.0,96,75,27,0.00,40.00,2,1,7,0.00
2013-4-25,67.0,57.2,40.0,36.0,33.1,31.0,69,43,28,0.00,40.00,6,4,15,0.00
2013-4-26,72.0,61.2,43.0,43.0,32.4,25.0,82,40,17,0.00,40.00,6,3,15,0.00
2013-4-27,59.0,52.0,48.0,38.0,33.6,24.0,68,51,26,0.00,40.00,10,6,28,0.00
2013-4-28,55.0,47.2,41.0,38.0,34.7,30.0,85,63,39,0.00,40.00,10,5,24,0.00
2013-4-29,42.0,38.4,36.0,37.0,33.0,21.0,100,83,42,0.00,40.00,7,3,22,0.00
2013-4-30,49.0,42.5,33.0,26.0,22.2,17.0,75,46,27,0.00,40.00,6,3,18,0.00
2013-5-1,57.0,34.8,26.0,29.0,23.6,15.0,92,71,18,0.00,40.00,2,0,6,0.00
2013-5-2,69.0,56.2,31.0,36.0,30.2,22.0,96,43,16,0.00,40.00,3,2,12,0.00
2013-5-3,73.0,58.0,37.0,42.0,34.9,27.0,88,48,17,0.00,40.00,5,2,10,0.00
2013-5-4,71.0,48.8,35.0,42.0,35.1,24.0,96,69,16,0.00,40.00,3,1,13,0.00
2013-5-5,78.0,60.4,36.0,44.0,33.6,22.0,96,45,12,0.00,40.00,3,1,9,0.00
2013-5-6,82.0,64.9,38.0,43.0,33.4,20.0,85,39,10,0.00,40.00,3,2,10,0.00
2013-5-7,84.0,62.4,43.0,48.0,40.4,33.0,85,51,16,0.00,40.00,5,2,12,0.00
2013-5-8,83.0,63.3,46.0,49.0,45.0,38.0,92,58,21,0.00,40.00,6,2,14,0.00
2013-5-9,85.0,60.8,43.0,47.0,40.2,26.0,96,58,12,0.00,40.00,8,1,18,0.00
2013-5-10,85.0,55.2,32.0,48.0,37.6,-99.9,100,65,11,0.00,40.00,2,-30,9,0.00
2013-5-11,80.0,57.4,50.0,46.0,43.6,39.0,79,62,23,0.00,40.00,2,1,5,0.00
2013-5-12,69.0,62.7,53.0,51.0,46.0,43.0,83,55,38,0.00,40.00,10,5,21,0.00
2013-5-13,59.0,51.7,40.0,49.0,45.5,40.0,100,81,55,0.00,40.00,3,2,15,0.00
2013-5-14,58.0,45.5,35.0,49.0,17.8,-99.9,100,62,34,0.00,40.00,8,2,17,0.00
2013-5-15,64.0,47.2,34.0,41.0,35.2,29.0,100,70,28,0.00,40.00,3,1,6,0.00
2013-5-16,67.0,53.0,42.0,47.0,26.5,-99.9,100,66,40,0.00,40.00,5,2,10,0.00
2013-5-17,62.0,51.1,44.0,47.0,13.3,-99.9,100,59,53,0.00,40.00,5,2,14,0.00
2013-5-18,60.0,51.9,45.0,41.0,37.4,34.0,82,59,37,0.00,40.00,7,3,22,0.00
2013-5-19,64.0,51.5,39.0,44.0,38.0,35.0,100,63,36,0.00,40.00,7,3,21,0.00
2013-5-20,73.0,57.9,38.0,50.0,23.8,-99.9,96,45,23,0.00,40.00,3,1,14,0.00
2013-5-21,52.0,46.5,40.0,48.0,-14.2,-99.9,100,48,50,0.00,40.00,7,2,17,0.00
2013-5-22,48.0,42.0,38.0,48.0,-20.3,-99.9,100,53,79,0.00,40.00,2,1,10,0.00
2013-5-23,52.0,43.6,38.0,47.0,-57.1,-99.9,100,27,82,0.00,40.00,1,1,3,0.00
2013-5-24,59.0,44.6,38.0,53.0,-28.4,-99.9,100,39,51,0.00,40.00,3,1,7,0.00
2013-5-25,59.0,46.0,35.0,49.0,39.8,33.0,100,83,41,0.00,40.00,2,1,7,0.00
2013-5-26,60.0,46.9,32.0,49.0,43.1,32.0,100,88,55,0.00,40.00,5,1,12,0.00
2013-5-27,52.0,40.9,36.0,45.0,39.8,36.0,100,96,76,0.00,40.00,2,0,5,0.00
2013-5-28,63.0,54.0,44.0,50.0,42.7,40.0,100,68,44,0.00,40.00,5,2,13,0.00
2013-5-29,57.0,47.1,40.0,49.0,42.0,39.0,100,84,57,0.00,40.00,6,1,17,0.00
2013-5-30,59.0,47.4,36.0,40.0,36.4,32.0,100,69,37,0.00,40.00,9,3,18,0.00
2013-5-31,67.0,49.3,39.0,39.0,36.2,32.0,92,67,28,0.00,40.00,3,2,12,0.00
2013-6-3,73.0,62.3,41.0,46.0,40.0,35.0,96,49,24,0.00,40.00,6,3,14,0.00
2013-6-4,79.0,59.6,42.0,50.0,43.4,37.0,96,62,23,0.00,40.00,3,1,9,0.00
2013-6-5,79.0,62.9,47.0,49.0,45.2,41.0,92,59,26,0.00,40.00,7,2,17,0.00
2013-6-6,80.0,59.0,47.0,50.0,44.8,32.0,89,65,18,0.00,40.00,2,1,7,0.00
2013-6-7,68.0,63.7,57.0,48.0,45.0,39.0,55,50,46,0.00,40.00,13,7,27,0.00
2013-6-8,74.0,63.1,53.0,43.0,37.8,31.0,61,41,20,0.00,40.00,9,5,18,0.00
2013-6-9,68.0,59.6,54.0,43.0,36.2,31.0,61,43,26,0.00,40.00,7,4,20,0.00
2013-6-10,73.0,55.4,40.0,41.0,37.0,28.0,88,56,20,0.00,40.00,5,2,14,0.00
2013-6-11,60.0,53.5,48.0,42.0,37.6,31.0,71,56,33,0.00,40.00,10,4,23,0.00
2013-6-12,63.0,51.4,41.0,37.0,35.2,32.0,85,57,32,0.00,40.00,7,3,17,0.00
2013-6-13,64.0,53.0,40.0,41.0,36.8,35.0,88,58,33,0.00,40.00,8,3,18,0.00
2013-6-14,67.0,59.4,44.0,42.0,39.7,38.0,85,50,34,0.00,40.00,5,3,14,0.00
2013-6-15,76.0,60.9,39.0,55.0,42.5,37.0,96,57,26,0.00,40.00,2,1,9,0.00
2013-6-16,82.0,65.4,48.0,51.0,45.8,35.0,92,55,20,0.00,40.00,3,2,13,0.00
2013-6-17,74.0,64.1,55.0,49.0,46.1,41.0,80,54,31,0.00,40.00,5,2,10,0.00
2013-6-18,68.0,57.7,51.0,53.0,47.2,39.0,100,72,34,0.00,40.00,2,1,9,0.00
2013-6-19,61.0,52.6,48.0,53.0,29.9,-99.9,100,71,45,0.00,40.00,6,2,16,0.00
2013-6-20,56.0,52.8,50.0,43.0,41.0,40.0,68,64,59,0.00,40.00,7,5,17,0.00
2013-6-22,76.0,63.6,45.0,53.0,48.9,44.0,96,61,33,0.00,40.00,2,1,8,0.00
2013-6-23,70.0,61.7,49.0,55.0,51.3,47.0,92,70,48,0.00,40.00,2,1,5,0.00
2013-6-24,58.0,54.9,51.0,58.0,54.7,51.0,100,99,96,0.00,40.00,1,0,5,0.00
2013-6-25,62.0,53.5,43.0,56.0,8.2,-99.9,100,65,72,0.00,40.00,2,1,6,0.00
2013-6-26,54.0,48.9,46.0,54.0,-77.9,-99.9,100,14,100,0.00,40.00,1,1,5,0.00
2013-6-27,63.0,58.0,50.0,61.0,-29.6,-99.9,100,39,77,0.00,40.00,1,0,3,0.00
2013-6-28,83.0,69.2,53.0,66.0,1.2,-99.9,93,38,45,0.00,40.00,2,1,8,0.00
2013-6-29,81.0,53.6,57.0,71.0,-74.0,-99.9,96,12,60,0.00,40.00,1,1,5,0.00
2013-6-30,-200.0,0.0,200.0,-99.9,-99.9,-99.9,0,0,100,0.00,40.00,3,1,12,0.00
2013-7-1,-200.0,0.0,200.0,-99.9,-99.9,-99.9,0,0,100,0.00,40.00,2,1,7,0.00
2013-7-2,-200.0,0.0,200.0,-99.9,-99.9,-99.9,0,0,100,0.00,40.00,7,3,18,0.00
2013-7-3,-200.0,0.0,200.0,-99.9,-99.9,-99.9,0,0,100,0.00,40.00,7,4,16,0.00
2013-7-4,77.0,33.7,61.0,44.0,-32.5,-99.9,53,17,24,0.00,40.00,9,6,24,0.00
2013-7-5,70.0,62.9,57.0,47.0,43.9,41.0,66,50,39,0.00,40.00,7,5,18,0.00
2013-7-6,82.0,65.9,47.0,53.0,49.1,42.0,100,59,24,0.00,40.00,3,1,9,0.00
2013-7-7,83.0,63.9,53.0,56.0,-20.6,-99.9,100,31,24,0.00,40.00,2,1,9,0.00
2013-7-8,63.0,53.4,49.0,-99.9,-99.9,-99.9,0,0,100,0.00,40.00,2,1,9,0.00
2013-7-9,87.0,71.6,53.0,59.0,13.3,-99.9,65,35,22,0.00,40.00,2,1,9,0.00
2013-7-10,82.0,66.5,55.0,58.0,49.7,39.0,100,61,23,0.00,40.00,9,3,18,0.00
2013-7-11,70.0,62.9,57.0,48.0,39.9,33.0,64,44,25,0.00,40.00,9,5,21,0.00
2013-7-12,66.0,58.9,53.0,42.0,38.9,37.0,58,48,34,0.00,40.00,6,3,14,0.00
2013-7-13,78.0,62.9,45.0,46.0,39.2,32.0,85,49,18,0.00,40.00,3,2,8,0.00
2013-7-14,82.0,68.1,45.0,49.0,37.0,26.0,100,42,14,0.00,40.00,6,3,17,0.00
2013-7-15,76.0,59.6,48.0,45.0,42.1,40.0,76,55,27,0.00,40.00,1,1,2,0.00
2013-7-16,85.0,65.9,47.0,54.0,45.0,33.0,89,53,16,0.00,40.00,2,1,6,0.00
2013-7-17,84.0,72.1,62.0,57.0,49.9,42.0,83,49,24,0.00,40.00,6,3,13,0.00
2013-7-18,87.0,70.8,50.0,53.0,46.3,39.0,96,49,18,0.00,40.00,6,2,14,0.00
2013-7-19,89.0,64.6,50.0,52.0,46.8,38.0,100,60,16,0.00,40.00,3,1,10,0.00
2013-7-20,67.0,60.0,53.0,53.0,52.2,52.0,100,76,58,0.00,40.00,1,1,2,0.00
2013-7-21,85.0,75.1,56.0,47.0,45.6,44.0,63,36,24,0.00,40.00,7,5,18,0.00
2013-7-22,85.0,78.4,63.0,54.0,48.2,44.0,60,36,23,0.00,40.00,6,3,16,0.00
2013-7-23,91.0,71.8,55.0,56.0,50.3,41.0,100,54,17,0.00,40.00,6,2,12,0.00
2013-7-24,90.0,69.0,55.0,54.0,49.0,36.0,96,56,14,0.00,40.00,6,2,13,0.00
2013-7-25,82.0,67.1,52.0,51.0,46.4,40.0,79,51,22,0.00,40.00,6,2,15,0.00
2013-7-26,85.0,66.2,52.0,47.0,42.4,36.0,79,47,17,0.00,40.00,5,2,13,0.00
2013-7-27,81.0,69.5,61.0,46.0,38.9,32.0,57,34,20,0.00,40.00,6,3,15,0.00
2013-7-28,80.0,70.9,53.0,49.0,41.3,36.0,66,37,20,0.00,40.00,6,3,14,0.00
2013-7-29,84.0,65.7,50.0,55.0,48.8,42.0,100,61,23,0.00,40.00,3,1,9,0.00
2013-7-30,83.0,66.8,56.0,54.0,51.7,45.0,86,60,26,0.00,40.00,2,1,6,0.00
2013-7-31,67.0,60.0,55.0,57.0,56.0,55.0,100,87,70,0.00,40.00,2,1,5,0.00
2013-8-1,76.0,66.4,50.0,55.0,19.9,-99.9,64,42,41,0.00,40.00,6,4,17,0.00
2013-8-2,69.0,60.7,55.0,55.0,30.6,-99.9,100,58,48,0.00,40.00,6,3,17,0.00
2013-8-3,80.0,64.7,50.0,58.0,36.1,-99.9,100,59,35,0.00,40.00,2,0,7,0.00
2013-8-4,82.0,67.3,52.0,65.0,20.3,-99.9,100,49,33,0.00,40.00,2,1,7,0.00
2013-8-5,87.0,67.9,52.0,61.0,-32.4,-99.9,100,18,21,0.00,40.00,6,2,14,0.00
2013-8-6,85.0,67.8,51.0,49.0,-4.1,-99.9,44,23,16,0.00,40.00,6,2,12,0.00
2013-8-7,88.0,66.8,52.0,48.0,44.5,40.0,82,49,19,0.00,40.00,6,2,14,0.00
2013-8-8,87.0,72.0,56.0,52.0,47.8,42.0,74,47,20,0.00,40.00,2,1,7,0.00
2013-8-9,92.0,74.6,56.0,57.0,-7.0,-99.9,57,20,19,0.00,40.00,2,1,12,0.00
2013-8-10,85.0,72.8,60.0,61.0,-10.3,-99.9,59,26,34,0.00,40.00,5,1,15,0.00
2013-8-11,61.0,58.3,56.0,-99.9,-99.9,-99.9,0,0,100,0.00,40.00,2,1,6,0.00
2013-8-12,78.0,62.7,50.0,59.0,-54.5,-99.9,61,16,52,0.00,40.00,3,1,8,0.00
2013-8-13,84.0,68.4,51.0,60.0,18.8,-99.9,100,43,23,0.00,40.00,2,1,9,0.00
2013-8-14,77.0,63.4,51.0,57.0,-44.7,-99.9,70,23,43,0.00,40.00,2,1,12,0.00
2013-8-15,75.0,68.1,63.0,62.0,45.2,-99.9,86,62,53,0.00,40.00,3,2,12,0.00
2013-8-16,82.0,64.4,51.0,61.0,-18.6,-99.9,89,27,31,0.00,40.00,3,1,12,0.00
2013-8-17,75.0,61.6,53.0,55.0,20.4,-99.9,100,45,34,0.00,40.00,7,3,17,0.00
2013-8-18,78.0,62.6,52.0,53.0,20.2,-99.9,86,49,27,0.00,40.00,8,2,15,0.00
2013-8-19,74.0,66.6,58.0,53.0,49.8,46.0,77,56,38,0.00,40.00,5,2,15,0.00
2013-8-20,78.0,71.9,64.0,49.0,42.0,38.0,58,36,23,0.00,40.00,7,4,18,0.00
2013-8-21,82.0,62.5,47.0,54.0,21.9,-99.9,83,48,27,0.00,40.00,1,0,3,0.00
2013-8-22,84.0,63.7,49.0,57.0,9.8,-99.9,92,41,23,0.00,40.00,3,1,7,0.00
2013-8-23,74.0,68.0,60.0,59.0,1.3,-99.9,65,34,42,0.00,40.00,6,3,13,0.00
2013-8-24,74.0,59.9,51.0,49.0,20.4,-99.9,62,39,36,0.00,40.00,6,3,14,0.00
2013-8-25,73.0,62.5,51.0,54.0,48.5,42.0,96,62,32,0.00,40.00,2,1,9,0.00
2013-8-26,73.0,63.5,51.0,56.0,-19.0,-99.9,72,28,42,0.00,40.00,3,1,12,0.00
2013-8-27,70.0,56.8,52.0,52.0,-87.2,-99.9,52,4,52,0.00,40.00,1,1,6,0.00
2013-8-28,75.0,65.6,60.0,60.0,-64.9,-99.9,70,13,49,0.00,40.00,3,1,7,0.00
2013-8-29,67.0,60.6,59.0,-99.9,-99.9,-99.9,0,0,100,0.00,40.00,2,1,7,0.00
2013-8-30,71.0,64.4,53.0,53.0,14.2,-99.9,86,42,40,0.00,40.00,7,4,17,0.00
2013-8-31,79.0,55.6,43.0,56.0,-28.7,-99.9,93,26,30,0.00,40.00,1,0,8,0.00
2013-9-1,85.0,69.7,47.0,58.0,2.4,-99.9,65,30,30,0.00,40.00,2,1,7,0.00
2013-9-2,86.0,66.9,53.0,61.0,6.0,-99.9,100,40,23,0.00,40.00,3,1,12,0.00
2013-9-3,78.0,65.1,58.0,60.0,25.7,-99.9,100,59,43,0.00,40.00,2,1,14,0.00
2013-9-4,84.0,67.6,55.0,58.0,3.5,-99.9,100,37,32,0.00,40.00,3,1,10,0.00
2013-9-5,79.0,64.9,58.0,68.0,-18.5,-99.9,96,41,56,0.00,40.00,2,1,7,0.00
2013-9-6,60.0,57.2,54.0,-99.9,-99.9,-99.9,0,0,100,0.00,40.00,3,1,9,0.00
2013-9-7,61.0,53.7,54.0,-99.9,-99.9,-99.9,0,0,100,0.00,40.00,1,0,3,0.00
2013-9-8,78.0,63.1,50.0,-99.9,-99.9,-99.9,0,0,100,0.00,40.00,5,2,13,0.00
2013-9-9,81.0,60.4,49.0,-99.9,-99.9,-99.9,0,0,100,0.00,40.00,5,1,9,0.00
2013-9-10,78.0,58.7,49.0,64.0,-79.5,-99.9,100,10,59,0.00,40.00,1,1,3,0.00
2013-9-11,86.0,61.3,49.0,62.0,-64.0,-99.9,75,13,43,0.00,40.00,1,1,3,0.00
2013-9-12,71.0,56.6,50.0,65.0,-67.5,-99.9,100,16,65,0.00,40.00,1,1,3,0.00
2013-9-13,82.0,62.3,53.0,64.0,-53.5,-99.9,96,17,45,0.00,40.00,2,1,6,0.00
2013-9-14,82.0,61.3,53.0,67.0,-48.0,-99.9,96,22,40,0.00,40.00,1,0,3,0.00
2013-9-15,81.0,66.8,55.0,65.0,-15.6,-99.9,78,30,33,0.00,40.00,3,0,9,0.00
2013-9-16,67.0,59.6,53.0,57.0,-18.3,-99.9,93,37,50,0.00,40.00,6,2,15,0.00
2013-9-17,64.0,53.4,46.0,51.0,-35.7,-99.9,92,29,55,0.00,40.00,6,1,18,0.00
2013-9-18,52.0,49.5,46.0,50.0,47.2,45.0,100,92,76,0.00,40.00,5,2,15,0.00
2013-9-19,66.0,50.4,36.0,48.0,-16.3,-99.9,100,38,34,0.00,40.00,2,1,9,0.00
2013-9-20,68.0,46.2,37.0,38.0,-74.8,-99.9,36,6,33,0.00,40.00,1,0,5,0.00
2013-9-21,65.0,52.6,50.0,47.0,-6.7,-99.9,89,34,30,0.00,40.00,5,2,14,0.00
2013-9-22,54.0,48.2,43.0,51.0,-56.1,-99.9,100,28,71,0.00,40.00,2,1,7,0.00
2013-9-23,53.0,45.8,43.0,-99.9,-99.9,-99.9,0,0,100,0.00,40.00,1,0,5,0.00
2013-9-24,57.0,45.8,41.0,46.0,-57.9,-99.9,100,23,47,0.00,40.00,6,1,13,0.00
2013-9-25,59.0,49.1,37.0,46.0,-13.3,-99.9,100,40,40,0.00,40.00,5,1,13,0.00
2013-9-26,56.0,44.8,39.0,51.0,-78.2,-99.9,100,11,46,0.00,40.00,1,0,5,0.00
2013-9-27,49.0,43.5,38.0,47.0,-91.3,-99.9,92,5,92,0.00,40.00,3,1,9,0.00
2013-9-28,47.0,41.5,43.0,-99.9,-99.9,-99.9,0,0,100,0.00,40.00,2,1,5,0.00
2013-9-29,49.0,43.7,39.0,-99.9,-99.9,-99.9,0,0,100,0.00,40.00,2,0,8,0.00
2013-9-30,44.0,38.8,33.0,-99.9,-99.9,-99.9,0,0,100,0.00,40.00,2,1,12,0.00
2013-10-1,47.0,41.0,37.0,32.0,-83.4,-99.9,72,9,72,0.00,40.00,1,1,6,0.00
2013-10-2,46.0,40.2,36.0,-99.9,-99.9,-99.9,0,0,100,0.00,40.00,1,0,3,0.00
2013-10-12,51.0,39.9,38.0,35.0,-81.9,-99.9,56,7,54,0.00,40.00,1,0,3,0.00
2013-10-13,51.0,39.5,32.0,45.0,-89.6,-99.9,82,6,82,0.00,40.00,1,0,3,0.00
2013-10-14,50.0,35.8,30.0,44.0,-87.9,-99.9,82,7,82,0.00,40.00,1,1,3,0.00
2013-10-15,55.0,42.1,30.0,46.0,-76.9,-99.9,71,9,38,0.00,40.00,1,0,3,0.00
2013-10-16,58.0,42.6,37.0,48.0,-69.6,-99.9,100,15,38,0.00,40.00,1,0,6,0.00
2013-10-17,50.0,38.2,31.0,46.0,-89.5,-99.9,86,6,86,0.00,40.00,1,0,2,0.00
2013-10-18,56.0,38.6,31.0,49.0,-79.0,-99.9,96,11,63,0.00,40.00,1,0,3,0.00
2013-10-21,43.0,35.6,33.0,-99.9,-99.9,-99.9,0,0,100,0.00,40.00,1,1,2,0.00
2013-10-22,60.0,41.6,33.0,53.0,-78.5,-99.9,100,12,62,0.00,40.00,1,0,2,0.00
2013-10-23,59.0,41.8,33.0,49.0,-87.5,-99.9,69,6,69,0.00,40.00,2,0,6,0.00
2013-10-24,51.0,39.5,32.0,-99.9,-99.9,-99.9,0,0,100,0.00,40.00,1,0,2,0.00
2013-10-25,58.0,38.8,32.0,47.0,-89.4,-99.9,66,5,66,0.00,40.00,1,0,2,0.00
2013-10-26,49.0,36.5,33.0,-99.9,-99.9,-99.9,0,0,100,0.00,40.00,2,0,6,0.00
2013-10-27,51.0,42.7,37.0,47.0,-46.4,-99.9,100,29,51,0.00,40.00,2,1,10,0.00
2013-10-28,43.0,38.3,31.0,34.0,-1.7,-99.9,96,59,67,0.00,40.00,1,0,3,0.00
2013-10-29,42.0,30.0,25.0,36.0,-34.6,-99.9,100,47,46,0.00,40.00,2,0,3,0.00
2013-10-30,53.0,30.1,26.0,-99.9,-99.9,-99.9,0,0,100,0.00,40.00,7,1,17,0.00
2013-10-31,53.0,47.0,41.0,41.0,22.5,-99.9,85,56,43,0.00,40.00,6,3,15,0.00
2013-11-1,54.0,41.9,33.0,48.0,-5.9,-99.9,100,59,77,0.00,40.00,2,0,5,0.00
2013-11-2,41.0,41.0,41.0,-99.9,-99.9,-99.9,0,0,100,0.00,40.00,1,0,2,0.00
2013-11-4,34.0,27.7,24.0,34.0,-77.8,-99.9,100,17,100,0.00,40.00,1,0,3,0.00
2013-11-5,37.0,31.6,30.0,-99.9,-99.9,-99.9,0,0,100,0.00,40.00,1,0,6,0.00
2013-11-6,35.0,32.5,30.0,-99.9,-99.9,-99.9,0,0,100,0.00,40.00,2,1,7,0.00
2013-11-7,34.0,32.4,32.0,-99.9,-99.9,-99.9,0,0,100,0.00,40.00,1,0,3,0.00
2013-11-8,38.0,33.4,29.0,-99.9,-99.9,-99.9,0,0,100,0.00,40.00,2,0,9,0.00
2013-11-9,35.0,29.4,27.0,-99.9,-99.9,-99.9,0,0,100,0.00,40.00,1,0,3,0.00
2013-11-10,32.0,32.0,32.0,-99.9,-99.9,-99.9,0,0,100,0.00,40.00,0,0,1,0.00
2013-11-11,41.0,38.6,37.0,-99.9,-99.9,-99.9,0,0,100,0.00,40.00,1,0,3,0.00
2013-11-12,44.0,40.3,39.0,-99.9,-99.9,-99.9,0,0,100,0.00,40.00,1,0,5,0.00
2013-11-13,49.0,40.6,34.0,-99.9,-99.9,-99.9,0,0,100,0.00,40.00,6,1,21,0.00
2013-11-14,47.0,36.1,33.0,40.0,-84.9,-99.9,100,9,55,0.00,40.00,5,1,13,0.00
2013-11-15,42.0,35.9,33.0,35.0,-56.2,-99.9,96,25,42,0.00,40.00,7,2,21,0.00
2013-11-16,33.0,32.2,32.0,-99.9,-99.9,-99.9,0,0,100,0.00,40.00,1,1,3,0.00
2013-11-17,34.0,32.1,29.0,-99.9,-99.9,-99.9,0,0,100,0.00,40.00,2,1,6,0.00
2013-11-18,42.0,37.5,34.0,-99.9,-99.9,-99.9,0,0,100,0.00,40.00,2,1,6,0.00
2013-11-19,42.0,37.6,34.0,-99.9,-99.9,-99.9,0,0,100,0.00,40.00,12,4,25,0.00
2013-11-20,30.0,25.9,21.0,24.0,19.5,14.0,100,78,50,0.00,40.00,1,0,2,0.00
2013-11-21,26.0,19.6,15.0,19.0,-50.1,-99.9,100,34,57,0.00,40.00,1,0,2,0.00
2013-11-22,30.0,21.3,16.0,24.0,7.5,-99.9,100,77,46,0.00,40.00,1,0,2,0.00
2013-11-23,31.0,18.8,15.0,23.0,2.4,-99.9,100,76,46,0.00,40.00,1,0,5,0.00
2013-11-24,21.0,21.0,21.0,18.0,18.0,18.0,87,87,87,0.00,40.00,1,1,2,0.00
2013-11-25,33.0,25.4,20.0,25.0,-7.2,-99.9,100,68,69,0.00,40.00,0,0,2,0.00
2013-11-26,34.0,26.2,21.0,28.0,-16.3,-99.9,100,62,69,0.00,40.00,1,0,2,0.00
2013-11-27,37.0,28.7,25.0,28.0,-41.2,-99.9,100,39,51,0.00,40.00,1,0,2,0.00
2013-11-28,35.0,25.6,20.0,34.0,-81.1,-99.9,100,14,96,0.00,40.00,1,0,2,0.00
2013-11-29,33.0,27.5,22.0,32.0,-84.4,-99.9,100,12,100,0.00,40.00,5,1,12,0.00
2013-11-30,38.0,28.6,27.0,-99.9,-99.9,-99.9,0,0,100,0.00,40.00,5,2,12,0.00
2013-12-1,32.0,25.8,31.0,-99.9,-99.9,-99.9,0,0,100,0.00,40.00,2,1,6,0.00
2013-12-2,32.0,29.1,26.0,-99.9,-99.9,-99.9,0,0,100,0.00,40.00,5,1,13,0.00
2013-12-3,26.0,20.6,13.0,-99.9,-99.9,-99.9,0,0,100,0.00,40.00,1,0,3,0.00
2013-12-4,21.0,14.4,8.0,10.0,-83.1,-99.9,100,15,100,0.00,40.00,0,0,1,0.00
2013-12-5,16.0,13.1,8.0,8.0,-92.7,-99.9,100,7,100,0.00,40.00,1,0,3,0.00
2013-12-6,16.0,12.3,10.0,-99.9,-99.9,-99.9,0,0,100,0.00,40.00,1,0,6,0.00
2013-12-7,7.0,3.6,2.0,7.0,-17.6,-99.9,100,74,86,0.00,40.00,0,0,0,0.00
2013-12-8,14.0,6.2,-2.0,10.0,-32.3,-99.9,100,60,74,0.00,40.00,3,0,6,0.00
2013-12-9,11.0,4.0,3.0,4.0,2.8,1.0,95,94,91,0.00,40.00,1,0,3,0.00
2013-12-10,21.0,15.9,11.0,-99.9,-99.9,-99.9,0,0,100,0.00,40.00,5,1,10,0.00
2013-12-11,25.0,19.8,16.0,24.0,-84.5,-99.9,100,12,91,0.00,40.00,3,0,6,0.00
2013-12-12,27.0,22.0,17.0,-99.9,-99.9,-99.9,0,0,100,0.00,40.00,1,0,3,0.00
2013-12-13,33.0,27.6,22.0,-99.9,-99.9,-99.9,0,0,100,0.00,40.00,1,0,2,0.00
2013-12-14,29.0,29.0,29.0,-99.9,-99.9,-99.9,0,0,100,0.00,40.00,0,0,1,0.00
2013-12-15,47.0,40.3,30.0,35.0,-6.7,-99.9,76,42,45,0.00,40.00,7,4,22,0.00
2013-12-16,44.0,35.1,28.0,32.0,2.3,-99.9,100,61,52,0.00,40.00,6,2,17,0.00
2013-12-17,28.0,28.0,28.0,-99.9,-99.9,-99.9,0,0,100,0.00,40.00,0,0,1,0.00
2013-12-18,28.0,27.3,26.0,20.0,18.7,17.0,77,69,62,0.00,40.00,1,0,1,0.00
2013-12-19,27.0,24.0,20.0,24.0,17.9,13.0,100,79,55,0.00,40.00,1,0,5,0.00
2013-12-20,26.0,23.2,22.0,18.0,16.2,11.0,80,74,57,0.00,40.00,3,1,10,0.00
2013-12-21,29.0,22.9,19.0,-99.9,-99.9,-99.9,0,0,100,0.00,40.00,5,1,10,0.00
2013-12-22,31.0,26.4,22.0,-99.9,-99.9,-99.9,0,0,100,0.00,40.00,3,2,10,0.00
2013-12-23,37.0,31.3,27.0,-99.9,-99.9,-99.9,0,0,100,0.00,40.00,3,2,13,0.00
2013-12-24,39.0,28.7,24.0,28.0,-92.4,-99.9,95,6,95,0.00,40.00,5,1,14,0.00
2013-12-25,23.0,21.4,20.0,-99.9,-99.9,-99.9,0,0,100,0.00,40.00,0,0,1,0.00
2013-12-26,23.0,22.2,22.0,-99.9,-99.9,-99.9,0,0,100,0.00,40.00,0,0,1,0.00
2013-12-27,36.0,31.1,27.0,-99.9,-99.9,-99.9,0,0,100,0.00,40.00,3,1,16,0.00
2013-12-28,35.0,26.4,24.0,-99.9,-99.9,-99.9,0,0,100,0.00,40.00,1,0,3,0.00
2013-12-29,37.0,28.0,24.0,32.0,-66.9,-99.9,81,20,81,0.00,40.00,1,0,3,0.00
2014-1-2,29.0,29.0,29.0,-99.9,-99.9,-99.9,0,0,100,0.00,40.00,0,0,3,0.00